Time,TemperatureF,DewpointF,PressureIn,WindDirection,WindDirectionDegrees,WindSpeedMPH,WindSpeedGustMPH,Humidity,HourlyPrecipIn,Conditions,Clouds,dailyrainin,SoftwareType,DateUTC
2013-05-26 00:00:00,47.0,-99.9,29.67,ESE,114,14.0,16.0,-999,-99.99,,,-99.99,,2013-05-26 04:00:00,
2013-05-26 00:43:00,47.0,-99.9,29.67,ESE,114,14.0,16.0,-999,-99.99,,,-99.99,,2013-05-26 04:43:00,
2013-05-26 00:53:00,47.0,-99.9,29.67,ESE,114,14.0,16.0,-999,-99.99,,,-99.99,,2013-05-26 04:53:00,
2013-05-26 01:00:00,47.0,-99.9,29.65,ESE,112,14.0,17.0,-999,-99.99,,,-99.99,,2013-05-26 05:00:00,
2013-05-26 01:42:00,47.0,-99.9,29.65,ESE,112,14.0,17.0,-999,-99.99,,,-99.99,,2013-05-26 05:42:00,
2013-05-26 01:52:00,47.0,-99.9,29.65,ESE,112,14.0,17.0,-999,-99.99,,,-99.99,,2013-05-26 05:52:00,
2013-05-26 02:00:00,47.0,-99.9,29.62,ESE,117,15.0,20.0,-999,-99.99,,,-99.99,,2013-05-26 06:00:00,
2013-05-26 02:42:00,47.0,-99.9,29.62,ESE,117,15.0,20.0,-999,-99.99,,,-99.99,,2013-05-26 06:42:00,
2013-05-26 02:52:00,47.0,-99.9,29.62,ESE,117,15.0,20.0,-999,-99.99,,,-99.99,,2013-05-26 06:52:00,
2013-05-26 03:00:00,47.0,-99.9,29.60,ESE,113,16.0,18.0,-999,-99.99,,,-99.99,,2013-05-26 07:00:00,
2013-05-26 03:42:00,47.0,-99.9,29.60,ESE,113,16.0,18.0,-999,-99.99,,,-99.99,,2013-05-26 07:42:00,
2013-05-26 03:52:00,47.0,-99.9,29.60,ESE,113,16.0,18.0,-999,-99.99,,,-99.99,,2013-05-26 07:52:00,
2013-05-26 04:00:00,47.0,-99.9,29.59,SE,126,16.0,20.0,-999,-99.99,,,-99.99,,2013-05-26 08:00:00,
2013-05-26 04:42:00,47.0,-99.9,29.59,SE,126,16.0,20.0,-999,-99.99,,,-99.99,,2013-05-26 08:42:00,
2013-05-26 04:53:00,47.0,-99.9,29.59,SE,126,16.0,20.0,-999,-99.99,,,-99.99,,2013-05-26 08:53:00,
2013-05-26 05:00:00,47.0,-99.9,29.61,South,176,11.0,13.0,-999,-99.99,,,-99.99,,2013-05-26 09:00:00,
2013-05-26 05:43:00,47.0,-99.9,29.61,South,176,11.0,13.0,-999,-99.99,,,-99.99,,2013-05-26 09:43:00,
2013-05-26 05:53:00,47.0,-99.9,29.61,South,176,11.0,13.0,-999,-99.99,,,-99.99,,2013-05-26 09:53:00,
2013-05-26 06:00:00,46.0,-99.9,29.62,South,190,11.0,21.0,-999,-99.99,,,-99.99,,2013-05-26 10:00:00,
2013-05-26 06:42:00,46.0,-99.9,29.62,South,190,11.0,21.0,-999,-99.99,,,-99.99,,2013-05-26 10:42:00,
2013-05-26 06:52:00,46.0,-99.9,29.62,South,190,11.0,21.0,-999,-99.99,,,-99.99,,2013-05-26 10:52:00,
2013-05-26 07:00:00,46.0,-99.9,29.63,South,189,13.0,16.0,-999,-99.99,,,-99.99,,2013-05-26 11:00:00,
2013-05-26 07:43:00,46.0,-99.9,29.63,South,189,13.0,16.0,-999,-99.99,,,-99.99,,2013-05-26 11:43:00,
2013-05-26 07:52:00,46.0,-99.9,29.63,South,189,13.0,16.0,-999,-99.99,,,-99.99,,2013-05-26 11:52:00,
2013-05-26 08:00:00,46.0,-99.9,29.65,South,180,10.0,12.0,-999,-99.99,,,-99.99,,2013-05-26 12:00:00,
2013-05-26 08:42:00,46.0,-99.9,29.65,South,180,10.0,12.0,-999,-99.99,,,-99.99,,2013-05-26 12:42:00,
2013-05-26 08:52:00,46.0,-99.9,29.65,South,180,10.0,12.0,-999,-99.99,,,-99.99,,2013-05-26 12:52:00,
2013-05-26 09:00:00,46.0,-99.9,29.65,South,186,13.0,16.0,-999,-99.99,,,-99.99,,2013-05-26 13:00:00,
2013-05-26 09:42:00,46.0,-99.9,29.65,South,186,13.0,16.0,-999,-99.99,,,-99.99,,2013-05-26 13:42:00,
2013-05-26 09:52:00,46.0,-99.9,29.65,South,186,13.0,16.0,-999,-99.99,,,-99.99,,2013-05-26 13:52:00,
2013-05-26 10:00:00,46.0,-99.9,29.65,South,188,10.0,12.0,-999,-99.99,,,-99.99,,2013-05-26 14:00:00,
2013-05-26 10:42:00,46.0,-99.9,29.65,South,188,10.0,12.0,-999,-99.99,,,-99.99,,2013-05-26 14:42:00,
2013-05-26 10:52:00,46.0,-99.9,29.65,South,188,10.0,12.0,-999,-99.99,,,-99.99,,2013-05-26 14:52:00,
2013-05-26 11:00:00,46.0,-99.9,29.65,South,172,9.0,11.0,-999,-99.99,,,-99.99,,2013-05-26 15:00:00,
2013-05-26 11:43:00,46.0,-99.9,29.65,South,172,9.0,11.0,-999,-99.99,,,-99.99,,2013-05-26 15:43:00,
2013-05-26 11:53:00,46.0,-99.9,29.65,South,172,9.0,11.0,-999,-99.99,,,-99.99,,2013-05-26 15:53:00,
2013-05-26 12:00:00,46.0,-99.9,29.65,SSE,151,9.0,11.0,-999,-99.99,,,-99.99,,2013-05-26 16:00:00,
2013-05-26 12:43:00,46.0,-99.9,29.65,SSE,151,9.0,11.0,-999,-99.99,,,-99.99,,2013-05-26 16:43:00,
2013-05-26 12:53:00,46.0,-99.9,29.65,SSE,151,9.0,11.0,-999,-99.99,,,-99.99,,2013-05-26 16:53:00,
2013-05-26 13:00:00,46.0,-99.9,29.66,SE,141,8.0,10.0,-999,-99.99,,,-99.99,,2013-05-26 17:00:00,
2013-05-26 13:42:00,46.0,-99.9,29.66,SE,141,8.0,10.0,-999,-99.99,,,-99.99,,2013-05-26 17:42:00,
2013-05-26 13:52:00,46.0,-99.9,29.66,SE,141,8.0,10.0,-999,-99.99,,,-99.99,,2013-05-26 17:52:00,
2013-05-26 15:00:00,45.0,-99.9,29.67,NNE,32,11.0,13.0,-999,-99.99,,,-99.99,,2013-05-26 19:00:00,
2013-05-26 15:42:00,45.0,-99.9,29.67,NNE,32,11.0,13.0,-999,-99.99,,,-99.99,,2013-05-26 19:42:00,
2013-05-26 15:53:00,45.0,-99.9,29.67,NNE,32,11.0,13.0,-999,-99.99,,,-99.99,,2013-05-26 19:53:00,
2013-05-26 16:00:00,45.0,-99.9,29.70,North,354,8.0,11.0,-999,-99.99,,,-99.99,,2013-05-26 20:00:00,
2013-05-26 16:42:00,45.0,-99.9,29.70,North,354,8.0,11.0,-999,-99.99,,,-99.99,,2013-05-26 20:42:00,
2013-05-26 16:53:00,45.0,-99.9,29.70,North,354,8.0,11.0,-999,-99.99,,,-99.99,,2013-05-26 20:53:00,
2013-05-26 17:00:00,46.0,-99.9,29.74,WNW,300,4.0,7.0,-999,-99.99,,,-99.99,,2013-05-26 21:00:00,
2013-05-26 17:43:00,46.0,-99.9,29.74,WNW,300,4.0,7.0,-999,-99.99,,,-99.99,,2013-05-26 21:43:00,
2013-05-26 17:53:00,46.0,-99.9,29.74,WNW,300,4.0,7.0,-999,-99.99,,,-99.99,,2013-05-26 21:53:00,
2013-05-26 18:00:00,46.0,-99.9,29.76,WSW,241,2.0,4.0,-999,-99.99,,,-99.99,,2013-05-26 22:00:00,
2013-05-26 18:42:00,46.0,-99.9,29.76,WSW,241,2.0,4.0,-999,-99.99,,,-99.99,,2013-05-26 22:42:00,
2013-05-26 18:53:00,46.0,-99.9,29.76,WSW,241,2.0,4.0,-999,-99.99,,,-99.99,,2013-05-26 22:53:00,
2013-05-26 19:00:00,47.0,-99.9,29.78,WNW,283,9.0,14.0,-999,-99.99,,,-99.99,,2013-05-26 23:00:00,
2013-05-26 19:43:00,47.0,-99.9,29.78,WNW,283,9.0,14.0,-999,-99.99,,,-99.99,,2013-05-26 23:43:00,
2013-05-26 19:52:00,47.0,-99.9,29.78,WNW,283,9.0,14.0,-999,-99.99,,,-99.99,,2013-05-26 23:52:00,
2013-05-26 20:00:00,48.0,-99.9,29.80,WNW,289,13.0,16.0,-999,-99.99,,,-99.99,,2013-05-27 00:00:00,
2013-05-26 20:42:00,48.0,-99.9,29.80,WNW,289,13.0,16.0,-999,-99.99,,,-99.99,,2013-05-27 00:42:00,
2013-05-26 20:52:00,48.0,-99.9,29.80,WNW,289,13.0,16.0,-999,-99.99,,,-99.99,,2013-05-27 00:52:00,
2013-05-26 21:30:00,49.0,-99.9,29.83,WNW,296,19.0,25.0,-999,-99.99,,,-99.99,,2013-05-27 01:30:00,
2013-05-26 21:42:00,47.0,-99.9,29.82,West,278,12.0,14.0,-999,-99.99,,,-99.99,,2013-05-27 01:42:00,
2013-05-26 21:52:00,47.0,-99.9,29.82,West,278,12.0,14.0,-999,-99.99,,,-99.99,,2013-05-27 01:52:00,
2013-05-26 22:00:00,48.0,-99.9,29.84,WNW,297,17.0,22.0,-999,-99.99,,,-99.99,,2013-05-27 02:00:00,
2013-05-26 22:02:00,49.0,-99.9,29.83,WNW,296,19.0,25.0,-999,-99.99,,,-99.99,,2013-05-27 02:02:00,
2013-05-26 22:11:00,49.0,-99.9,29.83,WNW,296,19.0,25.0,-999,-99.99,,,-99.99,,2013-05-27 02:11:00,
2013-05-26 22:22:00,49.0,-99.9,29.83,WNW,296,19.0,25.0,-999,-99.99,,,-99.99,,2013-05-27 02:22:00,
2013-05-26 22:43:00,48.0,-99.9,29.84,WNW,297,17.0,22.0,-999,-99.99,,,-99.99,,2013-05-27 02:43:00,
2013-05-26 22:52:00,48.0,-99.9,29.84,WNW,297,17.0,22.0,-999,-99.99,,,-99.99,,2013-05-27 02:52:00,
2013-05-26 23:00:00,47.0,-99.9,29.85,WNW,292,15.0,18.0,-999,-99.99,,,-99.99,,2013-05-27 03:00:00,
2013-05-26 23:43:00,47.0,-99.9,29.85,WNW,292,15.0,18.0,-999,-99.99,,,-99.99,,2013-05-27 03:43:00,
2013-05-26 23:54:00,47.0,-99.9,29.85,WNW,292,15.0,18.0,-999,-99.99,,,-99.99,,2013-05-27 03:54:00,